Hermiston, OR

5:27 AM PDT on October 17, 2017 (GMT -0700)
Hermiston Municipal

Weather History for KHRI - August, 2014

Change the Weather History Date:

Tuesday, August 19, 2014

  Actual Average Record
Temperature  
Mean Temperature 77 °F 72 °F  
Max Temperature 95 °F 89 °F 106 °F (1967)
Min Temperature 61 °F 54 °F 38 °F (1916)
Cooling Degree Days 12    
Growing Degree Days 27 (Base 50)    
Moisture  
Dew Point 56 °F    
Average Humidity 47    
Maximum Humidity 81    
Minimum Humidity 21    
Precipitation  
Precipitation 0.00 in 0.01 in 0.49 in (1924)
Month to date precipitation 0.17  
Year to date precipitation 6.46  
Sea Level Pressure  
Sea Level Pressure 29.67 in    
Wind  
Wind Speed 7 mph (WSW)    
Max Wind Speed 16 mph    
Max Gust Speed 23 mph    
Visibility 10 miles    
Events      
T = Trace of Precipitation, MM = Missing Value Source: NWS Daily Summary

Daily Weather History Graph

Daily Weather History Graph

Search for Another Location

Airport or City:

Trip Planner

Search our weather history database for the weather conditions in past years. The results will help you decide how hot, cold, wet, or windy it might be!

Date:

Astronomy

Aug. 19, 2014 Rise Set
Actual Time 6:02 AM PDT 7:58 PM PDT
Civil Twilight 5:29 AM PDT 8:30 PM PDT
Nautical Twilight 4:50 AM PDT 9:09 PM PDT
Astronomical Twilight 4:07 AM PDT 9:52 PM PDT
Moon 12:52 AM PDT (8/19) 4:04 PM PDT (8/19)
Length of Visible Light 15h 00m
Length of Day
13h 56m
Waning Crescent, 28% of the Moon is Illuminated
Aug 19
Waning Crescent
Aug 25
New
Sep 2
First Quarter
Sep 8
Full
Sep 15
Last Quarter

Hourly Weather History & Observations

Time (PDT) Temp. Heat Index Dew Point Humidity Pressure Visibility Wind Dir Wind Speed Gust Speed Precip Events Conditions
12:53 AM 66.9 °F - 57.9 °F 73% 29.70 in 10.0 mi Calm Calm - N/A   Clear
2:53 AM 66.0 °F - 55.0 °F 68% 29.68 in 10.0 mi SE 5.8 mph - N/A   Clear
3:53 AM 64.0 °F - 55.0 °F 73% 29.69 in 10.0 mi Calm Calm - N/A   Clear
5:53 AM 61.0 °F - 55.0 °F 81% 29.70 in 10.0 mi SSE 3.5 mph - N/A   Clear
6:53 AM 68.0 °F - 60.1 °F 76% 29.71 in 10.0 mi Calm Calm - N/A   Clear
7:53 AM 73.9 °F - 59.0 °F 59% 29.70 in 10.0 mi SW 8.1 mph - N/A   Clear
8:53 AM 75.0 °F - 61.0 °F 62% 29.71 in 10.0 mi NNW 3.5 mph - N/A   Clear
9:53 AM 81.0 °F 81.6 °F 60.1 °F 49% 29.71 in 10.0 mi West 13.8 mph - N/A   Clear
10:53 AM 84.0 °F 83.3 °F 57.0 °F 40% 29.71 in 10.0 mi West 16.1 mph - N/A   Clear
11:53 AM 87.1 °F 85.9 °F 57.0 °F 36% 29.69 in 10.0 mi WSW 11.5 mph - N/A   Clear
12:53 PM 90.0 °F 87.9 °F 55.0 °F 30% 29.67 in 10.0 mi West 13.8 mph 20.7 mph N/A   Clear
1:53 PM 91.9 °F - 51.1 °F 25% 29.66 in 10.0 mi West 11.5 mph 23.0 mph N/A   Clear
2:53 PM 91.9 °F - 46.0 °F 21% 29.64 in 10.0 mi West 9.2 mph - N/A   Clear
3:53 PM 93.0 °F - 48.0 °F 21% 29.61 in 10.0 mi WSW 10.4 mph - N/A   Clear
4:53 PM 93.9 °F - 51.1 °F 23% 29.60 in 10.0 mi WNW 8.1 mph - N/A   Clear
5:53 PM 93.0 °F - 52.0 °F 25% 29.59 in 10.0 mi West 12.7 mph 21.9 mph N/A   Clear
6:53 PM 89.1 °F 87.7 °F 57.0 °F 34% 29.59 in 10.0 mi WSW 11.5 mph - N/A   Clear
7:53 PM 84.9 °F 83.9 °F 57.0 °F 38% 29.61 in 10.0 mi WSW 15.0 mph 20.7 mph N/A   Partly Cloudy
8:53 PM 82.0 °F 81.7 °F 57.0 °F 42% 29.63 in 10.0 mi WSW 15.0 mph - N/A   Mostly Cloudy
9:53 PM 79.0 °F - 57.0 °F 47% 29.66 in 10.0 mi WSW 12.7 mph - N/A   Mostly Cloudy
10:53 PM 75.9 °F - 57.0 °F 52% 29.69 in 10.0 mi WSW 10.4 mph - N/A   Clear
11:53 PM 75.0 °F - 57.0 °F 53% 29.70 in 10.0 mi WSW 13.8 mph - N/A   Partly Cloudy